This demonstration page uses our WeatherBlox Daily Observations layout. Learn more.

Left ArrowRight Arrow

38.89511, -77.03637

Hourly Observations for May 6, 2019

Temp ( °F °C ) Dew Point ( °F °C ) Humidity (%) Winds ( mph kmh ) Pressure ( in mb ) Visibility ( mi km ) Precip ( " mm )
12:52 am 00:52 Cloudy 61 16.1 54 12.2 78 78 NNE 12 19 29.86 1011 10 16 N/A
1:43 am 01:43 Mostly Clear 60 15.6 53 11.7 78 78 NNE 9 15 29.86 1011 10 16 N/A
1:52 am 01:52 Mostly Clear 59 15 53 11.7 81 81 N 9 15 29.86 1011 10 16 N/A
2:25 am 02:25 Cloudy 60 15.6 53 11.7 78 78 NNW 10 17 29.88 1012 10 16 N/A
2:52 am 02:52 Cloudy 60 15.6 54 12.2 80 80 N 10 17 29.88 1012 10 16 N/A
3:52 am 03:52 Cloudy 60 15.6 54 12.2 80 80 N 12 19 29.90 1013 10 16 N/A
4:52 am 04:52 Cloudy 60 15.6 52 11.1 75 75 N 10 17 29.91 1013 10 16 N/A
5:52 am 05:52 Cloudy 60 15.6 52 11.1 75 75 NE 7 11 29.93 1014 10 16 N/A
6:52 am 06:52 Mostly Cloudy 59 15 52 11.1 78 78 E 9 15 29.96 1015 10 16 N/A
7:52 am 07:52 Mostly Cloudy 60 15.6 53 11.7 78 78 NE 7 11 29.99 1016 10 16 N/A
8:52 am 08:52 Mostly Cloudy 62 16.7 54 12.2 75 75 NNE 7 11 30.01 1016 10 16 N/A
9:52 am 09:52 Cloudy 64 17.8 54 12.2 70 70 NNE 5 7 30.02 1017 10 16 N/A
10:52 am 10:52 Mostly Cloudy 67 19.4 56 13.3 68 68 N 6 9 30.03 1017 10 16 N/A
11:52 am 11:52 Mostly Cloudy 71 21.7 58 14.4 63 63 NNE 7 11 30.02 1017 10 16 N/A
12:52 pm 12:52 Partly Cloudy 72 22.2 57 13.9 59 59 N N/A 30.01 1016 10 16 N/A
1:52 pm 13:52 Partly Cloudy 77 25 56 13.3 48 48 VRB 6 9 29.99 1016 10 16 N/A
2:52 pm 14:52 Cloudy 76 24.4 56 13.3 50 50 N N/A 30.01 1016 10 16 N/A
3:52 pm 15:52 Mostly Cloudy 78 25.6 55 12.8 45 45 NNW 7 11 30.00 1016 10 16 N/A
4:52 pm 16:52 Partly Cloudy 76 24.4 52 11.1 43 43 N N/A 29.99 1016 10 16 N/A
5:52 pm 17:52 Partly Cloudy 77 25 53 11.7 43 43 VRB 6 9 30.01 1016 10 16 N/A
6:52 pm 18:52 Partly Cloudy 73 22.8 55 12.8 53 53 SSE 5 7 30.02 1017 10 16 N/A
7:52 pm 19:52 Partly Cloudy 72 22.2 57 13.9 59 59 S 7 11 30.04 1017 10 16 N/A
8:52 pm 20:52 Mostly Clear 69 20.6 60 15.6 73 73 SSE 8 13 30.05 1018 10 16 N/A
9:52 pm 21:52 Clear 67 19.4 60 15.6 79 79 S 8 13 30.08 1019 10 16 N/A
10:52 pm 22:52 Mostly Clear 66 18.9 60 15.6 81 81 S 9 15 30.09 1019 10 16 N/A
11:52 pm 23:52 Mostly Clear 65 18.3 60 15.6 84 84 S 6 9 30.09 1019 10 16 N/A

Powered by AerisWeather